Time,TemperatureF,DewpointF,PressureIn,WindDirection,WindDirectionDegrees,WindSpeedMPH,WindSpeedGustMPH,Humidity,HourlyPrecipIn,Conditions,Clouds,dailyrainin,SoftwareType,DateUTC
2013-11-06 00:05:00,42.7,37.0,30.43,East,101,5.0,6.0,79,0.00,,,0.00,weatherlink.com 1.10,2013-11-06 05:05:00,
2013-11-06 00:20:00,43.3,37.0,30.43,ENE,71,5.0,7.0,77,0.00,,,0.00,weatherlink.com 1.10,2013-11-06 05:20:00,
2013-11-06 00:35:00,43.5,37.0,30.43,ESE,107,2.0,3.0,77,0.00,,,0.00,weatherlink.com 1.10,2013-11-06 05:35:00,
2013-11-06 00:50:00,43.6,37.0,30.42,ESE,109,0.0,5.0,78,0.00,,,0.00,weatherlink.com 1.10,2013-11-06 05:50:00,
2013-11-06 01:05:00,43.3,37.0,30.42,East,80,2.0,4.0,78,0.00,,,0.00,weatherlink.com 1.10,2013-11-06 06:05:00,
2013-11-06 01:20:00,43.4,37.0,30.41,SSE,153,1.0,5.0,79,0.00,,,0.00,weatherlink.com 1.10,2013-11-06 06:20:00,
2013-11-06 01:36:00,43.0,37.0,30.41,ESE,112,2.0,3.0,80,0.00,,,0.00,weatherlink.com 1.10,2013-11-06 06:36:00,
2013-11-06 01:51:00,42.9,37.0,30.41,North,10,3.0,3.0,80,0.00,,,0.00,weatherlink.com 1.10,2013-11-06 06:51:00,
2013-11-06 02:06:00,42.8,37.0,30.40,ESE,117,0.0,4.0,81,0.00,,,0.00,weatherlink.com 1.10,2013-11-06 07:06:00,
2013-11-06 02:21:00,42.8,37.0,30.40,East,91,1.0,2.0,81,0.00,,,0.00,weatherlink.com 1.10,2013-11-06 07:21:00,
2013-11-06 02:36:00,42.0,37.0,30.38,SE,143,3.0,3.0,82,0.00,,,0.00,weatherlink.com 1.10,2013-11-06 07:36:00,
2013-11-06 02:51:00,41.8,37.0,30.39,WSW,243,2.0,5.0,83,0.00,,,0.00,weatherlink.com 1.10,2013-11-06 07:51:00,
2013-11-06 03:06:00,41.4,37.0,30.39,WSW,241,0.0,2.0,83,0.00,,,0.00,weatherlink.com 1.10,2013-11-06 08:06:00,
2013-11-06 03:21:00,40.5,36.0,30.38,WSW,241,0.0,1.0,85,0.00,,,0.00,weatherlink.com 1.10,2013-11-06 08:21:00,
2013-11-06 03:36:00,40.4,37.0,30.38,SW,233,3.0,9.0,87,0.00,,,0.00,weatherlink.com 1.10,2013-11-06 08:36:00,
2013-11-06 03:51:00,41.1,37.0,30.38,East,92,0.0,3.0,86,0.00,,,0.00,weatherlink.com 1.10,2013-11-06 08:51:00,
2013-11-06 04:06:00,41.0,37.0,30.38,SSW,197,1.0,3.0,86,0.00,,,0.00,weatherlink.com 1.10,2013-11-06 09:06:00,
2013-11-06 04:21:00,41.4,38.0,30.37,SE,138,1.0,2.0,86,0.00,,,0.00,weatherlink.com 1.10,2013-11-06 09:21:00,
2013-11-06 04:36:00,41.7,38.0,30.37,ESE,117,0.0,3.0,86,0.00,,,0.00,weatherlink.com 1.10,2013-11-06 09:36:00,
2013-11-06 04:51:00,42.4,38.0,30.36,East,89,3.0,6.0,85,0.00,,,0.00,weatherlink.com 1.10,2013-11-06 09:51:00,
2013-11-06 05:06:00,43.4,39.0,30.36,East,79,0.0,3.0,84,0.00,,,0.00,weatherlink.com 1.10,2013-11-06 10:06:00,
2013-11-06 05:21:00,44.2,39.0,30.35,ESE,108,0.0,5.0,82,0.00,,,0.00,weatherlink.com 1.10,2013-11-06 10:21:00,
2013-11-06 05:36:00,43.6,39.0,30.34,East,94,5.0,5.0,84,0.00,,,0.00,weatherlink.com 1.10,2013-11-06 10:36:00,
2013-11-06 05:51:00,44.3,39.0,30.34,ENE,78,3.0,6.0,82,0.00,,,0.00,weatherlink.com 1.10,2013-11-06 10:51:00,
2013-11-06 06:06:00,44.7,40.0,30.35,SW,225,0.0,4.0,82,0.00,,,0.00,weatherlink.com 1.10,2013-11-06 11:06:00,
2013-11-06 06:21:00,45.5,40.0,30.34,ESE,107,1.0,5.0,80,0.00,,,0.00,weatherlink.com 1.10,2013-11-06 11:21:00,
2013-11-06 06:36:00,45.1,40.0,30.34,ENE,62,0.0,4.0,81,0.00,,,0.00,weatherlink.com 1.10,2013-11-06 11:36:00,
2013-11-06 06:51:00,45.0,40.0,30.33,SSE,150,2.0,6.0,82,0.00,,,0.00,weatherlink.com 1.10,2013-11-06 11:51:00,
2013-11-06 07:06:00,45.1,40.0,30.33,ESE,123,1.0,5.0,83,0.00,,,0.00,weatherlink.com 1.10,2013-11-06 12:06:00,
2013-11-06 07:21:00,45.2,40.0,30.33,East,90,3.0,5.0,82,0.00,,,0.00,weatherlink.com 1.10,2013-11-06 12:21:00,
2013-11-06 07:36:00,47.0,41.0,30.33,SSW,211,5.0,10.0,80,0.00,,,0.00,weatherlink.com 1.10,2013-11-06 12:36:00,
2013-11-06 07:51:00,48.2,41.0,30.33,NNW,347,3.0,13.0,76,0.00,,,0.00,weatherlink.com 1.10,2013-11-06 12:51:00,
2013-11-06 08:06:00,48.6,41.0,30.31,SSE,152,4.0,7.0,75,0.00,,,0.00,weatherlink.com 1.10,2013-11-06 13:06:00,
2013-11-06 08:21:00,49.0,41.0,30.30,ESE,108,2.0,7.0,74,0.00,,,0.00,weatherlink.com 1.10,2013-11-06 13:21:00,
2013-11-06 08:36:00,49.3,41.0,30.30,WSW,256,2.0,19.0,73,0.00,,,0.00,weatherlink.com 1.10,2013-11-06 13:36:00,
2013-11-06 08:51:00,49.6,41.0,30.29,SSW,196,5.0,14.0,73,0.00,,,0.00,weatherlink.com 1.10,2013-11-06 13:51:00,
2013-11-06 09:06:00,49.9,41.0,30.29,SE,136,5.0,9.0,72,0.00,,,0.00,weatherlink.com 1.10,2013-11-06 14:06:00,
2013-11-06 09:21:00,50.1,41.0,30.28,WSW,238,3.0,19.0,72,0.00,,,0.00,weatherlink.com 1.10,2013-11-06 14:21:00,
2013-11-06 09:37:00,50.5,41.0,30.27,NNW,329,4.0,7.0,71,0.00,,,0.00,weatherlink.com 1.10,2013-11-06 14:37:00,
2013-11-06 09:52:00,50.9,42.0,30.27,East,100,5.0,8.0,71,0.00,,,0.00,weatherlink.com 1.10,2013-11-06 14:52:00,
2013-11-06 10:07:00,51.5,42.0,30.26,North,5,4.0,11.0,70,0.00,,,0.00,weatherlink.com 1.10,2013-11-06 15:07:00,
2013-11-06 10:22:00,51.6,42.0,30.26,West,267,5.0,10.0,70,0.00,,,0.00,weatherlink.com 1.10,2013-11-06 15:22:00,
2013-11-06 10:37:00,51.4,42.0,30.27,West,259,6.0,11.0,70,0.00,,,0.00,weatherlink.com 1.10,2013-11-06 15:37:00,
2013-11-06 10:52:00,52.1,43.0,30.26,SSW,198,3.0,17.0,70,0.00,,,0.00,weatherlink.com 1.10,2013-11-06 15:52:00,
2013-11-06 11:07:00,53.6,43.0,30.25,SSE,149,0.0,11.0,67,0.00,,,0.00,weatherlink.com 1.10,2013-11-06 16:07:00,
2013-11-06 11:22:00,54.3,43.0,30.24,SW,235,2.0,9.0,65,0.00,,,0.00,weatherlink.com 1.10,2013-11-06 16:22:00,
2013-11-06 11:37:00,54.6,42.0,30.24,SW,214,3.0,9.0,63,0.00,,,0.00,weatherlink.com 1.10,2013-11-06 16:37:00,
2013-11-06 11:52:00,54.5,43.0,30.23,WSW,257,5.0,9.0,65,0.00,,,0.00,weatherlink.com 1.10,2013-11-06 16:52:00,
2013-11-06 12:07:00,55.2,42.0,30.21,South,182,5.0,13.0,62,0.00,,,0.00,weatherlink.com 1.10,2013-11-06 17:07:00,
2013-11-06 12:22:00,55.1,43.0,30.20,South,191,2.0,18.0,64,0.00,,,0.00,weatherlink.com 1.10,2013-11-06 17:22:00,
2013-11-06 12:37:00,55.9,43.0,30.20,ESE,115,3.0,18.0,62,0.00,,,0.00,weatherlink.com 1.10,2013-11-06 17:37:00,
2013-11-06 12:52:00,56.5,42.0,30.20,SW,225,9.0,11.0,59,0.00,,,0.00,weatherlink.com 1.10,2013-11-06 17:52:00,
2013-11-06 13:07:00,55.9,42.0,30.19,South,170,4.0,13.0,61,0.00,,,0.00,weatherlink.com 1.10,2013-11-06 18:07:00,
2013-11-06 13:22:00,56.2,43.0,30.18,West,264,0.0,8.0,62,0.00,,,0.00,weatherlink.com 1.10,2013-11-06 18:22:00,
2013-11-06 13:37:00,57.3,44.0,30.17,SE,126,1.0,5.0,61,0.00,,,0.00,weatherlink.com 1.10,2013-11-06 18:37:00,
2013-11-06 13:52:00,58.4,44.0,30.17,SSW,196,2.0,6.0,59,0.00,,,0.00,weatherlink.com 1.10,2013-11-06 18:52:00,
2013-11-06 14:07:00,57.7,44.0,30.17,West,261,2.0,4.0,60,0.00,,,0.00,weatherlink.com 1.10,2013-11-06 19:07:00,
2013-11-06 14:22:00,57.6,43.0,30.17,ESE,102,2.0,6.0,58,0.00,,,0.00,weatherlink.com 1.10,2013-11-06 19:22:00,
2013-11-06 14:37:00,57.2,44.0,30.16,SW,232,6.0,8.0,61,0.00,,,0.00,weatherlink.com 1.10,2013-11-06 19:37:00,
2013-11-06 14:52:00,53.8,43.0,30.17,SW,221,8.0,10.0,66,0.00,,,0.00,weatherlink.com 1.10,2013-11-06 19:52:00,
2013-11-06 15:07:00,53.2,43.0,30.16,West,260,1.0,9.0,68,0.00,,,0.00,weatherlink.com 1.10,2013-11-06 20:07:00,
2013-11-06 15:22:00,53.0,43.0,30.16,ESE,115,2.0,5.0,70,0.00,,,0.00,weatherlink.com 1.10,2013-11-06 20:22:00,
2013-11-06 15:37:00,52.3,43.0,30.16,East,100,3.0,11.0,71,0.00,,,0.00,weatherlink.com 1.10,2013-11-06 20:37:00,
2013-11-06 15:52:00,52.0,44.0,30.16,WNW,292,0.0,5.0,73,0.00,,,0.00,weatherlink.com 1.10,2013-11-06 20:52:00,
2013-11-06 16:07:00,52.2,43.0,30.14,NNE,15,2.0,7.0,72,0.00,,,0.00,weatherlink.com 1.10,2013-11-06 21:07:00,
2013-11-06 16:22:00,51.9,43.0,30.14,ESE,105,2.0,6.0,73,0.00,,,0.00,weatherlink.com 1.10,2013-11-06 21:22:00,
2013-11-06 16:37:00,51.8,44.0,30.13,South,182,6.0,6.0,74,0.00,,,0.00,weatherlink.com 1.10,2013-11-06 21:37:00,
2013-11-06 16:53:00,51.7,44.0,30.12,West,263,0.0,9.0,75,0.00,,,0.00,weatherlink.com 1.10,2013-11-06 21:53:00,
2013-11-06 17:08:00,51.6,44.0,30.13,SSE,153,4.0,13.0,75,0.00,,,0.00,weatherlink.com 1.10,2013-11-06 22:08:00,
2013-11-06 17:23:00,51.9,44.0,30.12,NNW,327,6.0,12.0,74,0.00,,,0.00,weatherlink.com 1.10,2013-11-06 22:23:00,
2013-11-06 17:38:00,52.0,44.0,30.12,East,98,0.0,6.0,74,0.00,,,0.00,weatherlink.com 1.10,2013-11-06 22:38:00,
2013-11-06 17:53:00,52.1,44.0,30.11,East,86,1.0,7.0,74,0.00,,,0.00,weatherlink.com 1.10,2013-11-06 22:53:00,
2013-11-06 18:08:00,52.1,44.0,30.10,ESE,110,2.0,10.0,74,0.00,,,0.00,weatherlink.com 1.10,2013-11-06 23:08:00,
2013-11-06 18:23:00,52.4,44.0,30.10,South,172,3.0,8.0,74,0.00,,,0.00,weatherlink.com 1.10,2013-11-06 23:23:00,
2013-11-06 18:38:00,52.5,44.0,30.09,SE,146,5.0,9.0,74,0.00,,,0.00,weatherlink.com 1.10,2013-11-06 23:38:00,
2013-11-06 19:08:00,52.7,45.0,30.07,SSW,205,1.0,9.0,74,0.00,,,0.00,weatherlink.com 1.10,2013-11-07 00:08:00,
2013-11-06 19:23:00,52.7,45.0,30.07,South,180,7.0,12.0,74,0.00,,,0.00,weatherlink.com 1.10,2013-11-07 00:23:00,
2013-11-06 19:38:00,52.7,45.0,30.06,WSW,248,1.0,13.0,74,0.00,,,0.00,weatherlink.com 1.10,2013-11-07 00:38:00,
2013-11-06 19:53:00,52.4,45.0,30.06,SE,133,6.0,10.0,75,0.00,,,0.00,weatherlink.com 1.10,2013-11-07 00:53:00,
2013-11-06 20:08:00,52.3,45.0,30.05,NW,306,0.0,12.0,75,0.00,,,0.00,weatherlink.com 1.10,2013-11-07 01:08:00,
2013-11-06 20:23:00,52.1,45.0,30.05,ESE,119,4.0,10.0,76,0.00,,,0.00,weatherlink.com 1.10,2013-11-07 01:23:00,
2013-11-06 20:38:00,52.1,45.0,30.05,East,100,3.0,11.0,76,0.00,,,0.00,weatherlink.com 1.10,2013-11-07 01:38:00,
2013-11-06 20:53:00,51.8,45.0,30.05,North,351,2.0,9.0,77,0.00,,,0.00,weatherlink.com 1.10,2013-11-07 01:53:00,
2013-11-06 21:08:00,52.0,45.0,30.03,SE,130,2.0,10.0,77,0.00,,,0.00,weatherlink.com 1.10,2013-11-07 02:08:00,
2013-11-06 21:23:00,51.8,45.0,30.02,ESE,113,1.0,10.0,78,0.00,,,0.00,weatherlink.com 1.10,2013-11-07 02:23:00,
2013-11-06 21:38:00,52.1,45.0,30.02,South,170,3.0,10.0,78,0.00,,,0.00,weatherlink.com 1.10,2013-11-07 02:38:00,
2013-11-06 21:53:00,52.2,46.0,30.01,SE,125,3.0,8.0,78,0.00,,,0.00,weatherlink.com 1.10,2013-11-07 02:53:00,
2013-11-06 22:08:00,52.0,46.0,30.00,SSE,151,1.0,6.0,79,0.00,,,0.00,weatherlink.com 1.10,2013-11-07 03:08:00,
2013-11-06 22:23:00,52.3,46.0,30.00,SE,143,3.0,7.0,79,0.00,,,0.00,weatherlink.com 1.10,2013-11-07 03:23:00,
2013-11-06 22:38:00,53.7,47.0,29.99,SSE,152,1.0,11.0,77,0.00,,,0.00,weatherlink.com 1.10,2013-11-07 03:38:00,
2013-11-06 22:53:00,53.5,47.0,29.98,WSW,257,0.0,5.0,78,0.00,,,0.00,weatherlink.com 1.10,2013-11-07 03:53:00,
2013-11-06 23:08:00,54.3,47.0,29.97,ESE,117,1.0,9.0,77,0.00,,,0.00,weatherlink.com 1.10,2013-11-07 04:08:00,
2013-11-06 23:23:00,55.1,48.0,29.96,SSW,194,3.0,9.0,76,0.00,,,0.00,weatherlink.com 1.10,2013-11-07 04:23:00,
2013-11-06 23:38:00,55.7,48.0,29.95,ENE,65,3.0,15.0,75,0.00,,,0.00,weatherlink.com 1.10,2013-11-07 04:38:00,
2013-11-06 23:53:00,56.3,48.0,29.94,WSW,240,12.0,17.0,74,0.00,,,0.00,weatherlink.com 1.10,2013-11-07 04:53:00,